Wind_Speed
27 26 25 25 24 23 22 21 21 20 19 18 18 18 18 17 17 16 16 16 16 16 16 15 14 13 13 13 12 12 11 11 12 12 11 11 11 11 11 11 10 10 9 9 8 8 7 7 6 5 4 3 3 4 5 5 5 4 4 3 4 5 5 6 6 7 8 9 9 10 10 10 10 9 9 9 9 9 10 11 13 13 12 12 13
28 27 26 25 25 25 24 23 22 21 20 20 20 20 19 18 18 17 17 17 17 17 16 16 15 15 14 14 13 12 12 12 12 12 12 11 11 11 11 11 10 10 9 9 8 8 7 7 6 6 5 4 4 3 4 5 5 5 4 4 4 5 6 6 6 6 7 8 9 9 9 10 10 11 11 11 11 10 10 11 12 12 12 12 12
27 27 27 26 26 26 25 24 24 23 22 22 22 22 21 20 18 18 18 18 17 17 16 16 16 16 16 15 14 14 13 13 13 13 13 12 12 12 12 11 11 10 10 9 9 8 8 7 7 7 7 5 5 4 4 5 5 5 5 4 5 5 6 6 6 7 7 8 9 9 9 9 10 11 11 12 13 13 13 13 14 14 13 13 13
26 26 26 27 27 26 26 26 25 24 24 24 24 23 22 21 20 19 19 19 18 17 17 16 16 17 17 16 16 15 14 14 14 13 13 13 13 12 12 12 11 11 10 10 9 9 8 8 8 8 7 7 6 6 5 5 5 5 5 5 5 5 5 6 6 7 8 9 9 10 10 9 9 11 12 12 13 14 15 15 16 16 15 14 15
26 26 26 27 26 26 26 26 26 26 26 26 26 25 24 22 21 21 20 20 19 19 18 17 17 18 18 17 17 16 15 15 14 14 13 13 13 13 13 12 12 12 11 11 10 9 9 9 9 8 8 8 7 7 7 7 7 7 6 6 6 6 6 6 7 8 9 10 10 11 11 10 10 11 13 14 14 15 15 15 16 16 16 15 15
26 25 25 25 26 26 27 27 27 27 27 27 27 27 25 24 23 23 22 22 21 20 19 19 19 19 19 19 18 17 16 16 16 15 14 14 14 14 14 13 13 13 12 12 11 11 10 10 10 10 10 9 9 8 8 8 8 8 8 7 8 8 8 8 9 9 10 11 12 12 12 11 11 11 13 14 16 17 17 16 15 15 15 15 14
28 28 28 27 26 26 27 27 28 29 29 29 29 29 28 27 26 25 25 24 23 22 21 21 21 21 20 20 19 18 18 18 18 17 16 16 16 15 15 15 14 14 13 12 12 12 12 11 12 12 11 11 10 10 10 10 10 9 9 9 9 9 9 10 10 11 11 13 13 14 13 13 13 13 13 15 16 18 19 19 18 16 15 14 14
30 30 32 32 29 27 28 28 29 30 31 31 31 31 30 29 29 28 27 27 25 24 24 23 23 23 22 21 21 21 20 20 20 20 19 19 18 18 17 16 15 15 14 13 13 13 13 13 13 13 12 12 12 12 12 12 11 11 11 11 11 11 11 11 12 13 13 14 15 16 15 15 15 15 15 16 17 18 19 20 20 19 18 16 15
32 32 33 33 31 29 28 29 30 31 32 33 33 33 33 32 31 31 30 29 28 27 26 26 25 25 25 24 24 23 22 22 22 23 23 22 21 20 19 18 17 16 15 15 15 15 15 14 14 14 14 13 13 14 14 14 13 13 13 13 13 13 13 13 14 14 15 16 17 17 17 17 17 17 17 17 17 18 18 19 20 20 20 19 17
34 34 34 34 34 32 30 31 33 33 33 33 34 35 35 34 34 33 32 31 31 30 29 29 28 28 27 27 26 25 25 25 25 25 25 25 24 23 22 21 19 18 18 17 17 17 17 16 16 16 16 16 16 16 16 16 15 15 15 15 15 16 15 15 16 16 17 18 18 19 19 19 19 18 18 18 18 18 19 19 19 19 19 19 18
36 35 34 34 35 34 33 34 35 34 33 33 33 35 35 36 35 35 35 35 34 33 32 31 31 31 30 30 29 28 27 28 28 28 27 27 26 25 24 23 21 20 20 20 20 20 19 19 19 18 18 19 19 19 19 18 18 17 17 17 17 18 18 17 18 19 19 19 20 20 21 21 21 20 20 20 20 20 20 20 20 19 19 19 19
37 37 36 37 36 36 37 38 37 36 34 33 34 35 35 36 37 38 38 37 36 36 35 34 34 33 33 32 31 30 30 30 30 29 29 29 28 27 26 25 24 23 23 23 23 22 22 21 21 21 21 21 20 20 20 20 20 19 18 18 18 19 19 19 20 21 21 21 22 23 23 23 23 23 22 22 22 22 22 22 22 21 20 19 18
42 40 39 39 38 38 40 41 40 39 38 37 38 38 36 36 37 40 41 40 39 39 38 37 37 36 35 35 34 33 33 32 32 31 31 30 29 28 28 27 27 26 26 26 25 25 24 24 23 23 23 22 21 22 22 22 23 22 20 19 19 18 19 20 21 22 22 22 23 24 24 25 26 26 25 24 24 23 23 24 24 23 22 21 19
42 45 45 43 41 41 43 44 43 44 43 41 41 41 40 38 37 39 42 42 42 41 40 39 39 38 38 37 36 35 35 35 34 33 32 31 31 29 30 30 29 28 28 28 28 27 26 26 25 24 24 23 23 24 25 25 25 23 21 21 20 20 21 21 22 23 23 23 23 23 24 26 27 28 28 27 27 25 25 24 25 25 25 23 22
29 34 38 40 41 42 44 45 45 47 47 45 44 43 43 42 40 40 41 41 40 40 41 41 40 39 39 38 38 37 36 35 35 35 33 33 32 31 31 31 31 30 30 30 30 29 28 27 26 26 25 26 26 26 27 27 25 23 23 23 23 23 24 24 24 24 24 24 24 24 24 26 28 28 29 29 29 29 28 26 26 26 26 25 24
20 21 24 28 33 37 39 39 40 42 45 46 47 46 43 44 45 43 40 37 36 37 38 40 41 39 38 38 39 38 37 36 35 35 34 34 34 33 32 32 33 33 33 32 31 31 30 29 28 27 27 27 28 29 29 29 27 25 25 25 25 26 26 26 26 26 26 26 26 26 26 27 28 28 28 29 30 30 30 29 28 27 27 26 26
15 19 20 19 21 24 28 30 32 35 38 42 46 47 45 46 47 43 38 37 37 37 38 39 39 38 37 37 38 38 38 37 33 30 30 33 34 35 35 34 33 34 34 34 33 32 31 31 30 29 28 29 30 30 31 31 30 28 28 28 28 28 28 29 29 28 28 28 28 29 30 31 31 31 30 30 30 30 30 30 30 30 29 28 28
15 18 18 14 13 16 23 26 28 31 35 39 43 45 46 47 47 44 41 42 42 40 40 40 38 37 36 35 36 37 37 35 32 29 30 33 36 37 37 35 33 33 34 34 34 33 32 31 31 30 29 30 31 32 32 32 31 30 30 30 30 30 31 31 31 30 30 31 32 32 33 34 34 34 34 33 32 32 31 31 31 32 32 31 30
21 20 18 15 15 17 20 22 22 25 30 34 39 44 45 46 47 47 45 46 45 43 41 40 39 38 37 36 36 37 36 35 33 31 32 35 36 37 37 35 33 33 33 33 33 32 32 31 31 30 30 30 32 33 33 34 33 33 33 33 33 33 32 32 33 33 33 34 35 35 34 34 35 36 36 36 36 36 35 33 33 33 34 33 32
25 24 21 20 20 20 20 20 21 24 28 30 34 40 43 44 47 48 47 45 45 45 43 41 41 40 39 39 39 39 37 36 35 35 35 36 36 36 36 35 33 33 32 32 32 32 32 32 32 32 31 32 33 34 35 36 36 36 36 35 36 36 34 33 36 38 38 36 35 35 34 35 36 37 37 38 39 38 37 35 34 34 34 34 34
24 25 24 24 25 26 24 22 21 20 23 26 29 34 39 43 44 44 44 43 44 44 43 41 40 41 41 42 42 41 38 36 36 37 38 37 36 35 35 34 34 34 33 33 32 33 33 33 33 34 34 34 35 36 38 39 38 37 38 38 38 39 39 38 40 42 41 38 35 35 35 36 37 36 35 36 36 35 34 33 33 33 33 34 34
23 24 24 24 26 28 28 26 23 20 17 18 20 23 30 37 39 38 38 39 41 43 42 39 37 39 41 42 42 41 41 41 40 41 41 40 38 37 36 36 36 36 36 35 35 35 36 36 36 37 38 38 39 40 41 41 40 39 39 40 41 42 42 42 44 45 45 42 38 36 36 36 35 34 33 32 30 29 28 29 30 31 32 32 32
24 23 23 23 25 28 29 27 26 25 22 19 16 16 19 25 31 34 35 36 38 40 39 37 36 37 38 41 43 43 44 44 44 44 44 42 40 39 39 39 39 39 39 39 38 38 39 39 39 39 39 40 42 43 44 44 43 42 42 42 43 42 40 40 42 43 43 41 38 36 36 37 36 34 34 32 29 26 25 25 26 28 29 30 31
25 25 24 23 23 25 27 26 25 26 27 25 21 18 17 18 21 24 27 29 30 30 31 33 34 34 35 38 41 44 46 47 48 48 47 45 43 42 42 41 41 41 42 42 42 41 40 40 39 38 37 37 37 38 39 40 40 39 39 40 40 39 38 37 38 39 40 39 37 36 38 37 36 35 35 32 28 26 25 25 25 26 27 28 30
27 26 26 25 24 24 25 25 24 25 26 26 24 22 21 21 20 19 20 22 22 22 22 24 25 27 27 27 29 33 37 42 44 45 45 44 43 42 41 40 39 39 40 41 41 39 38 38 37 36 34 33 32 32 31 33 34 35 35 37 37 37 38 38 38 38 39 38 36 36 37 36 35 36 34 30 26 26 27 27 27 27 28 29 30
28 27 27 27 26 26 26 26 24 23 23 24 24 23 22 24 24 23 21 20 19 18 20 21 21 22 23 23 24 25 26 28 32 34 34 34 34 33 33 33 33 34 34 35 35 34 33 33 33 33 33 33 33 33 32 33 34 34 34 35 37 39 41 41 38 37 38 38 37 37 36 34 33 32 30 28 27 28 28 28 29 30 30 30 31
28 28 27 27 27 27 27 27 27 25 24 24 24 24 24 25 27 28 27 24 22 22 23 24 24 25 24 24 25 25 24 25 28 29 29 29 28 28 28 28 30 31 32 32 32 32 32 32 32 33 34 35 35 36 36 36 36 36 36 37 39 39 38 34 30 28 28 30 31 31 31 30 29 27 27 27 28 28 28 29 30 31 32 33 33
28 28 28 27 28 28 28 28 28 28 27 26 26 27 27 27 29 31 32 32 31 30 29 29 30 29 28 27 27 27 26 27 28 28 28 29 29 29 29 30 31 32 32 32 32 33 34 34 34 34 35 36 37 38 38 38 36 35 35 36 37 33 27 22 21 20 21 24 26 27 28 28 27 26 26 27 28 29 30 32 33 34 34 34 34
28 28 28 28 28 29 29 29 29 29 29 29 28 29 30 29 29 31 33 35 36 35 34 33 32 33 32 31 30 29 29 29 28 29 30 31 31 32 32 32 33 33 34 34 34 35 36 37 37 37 37 38 38 39 40 38 36 34 32 31 31 27 22 20 23 26 29 31 30 28 29 28 28 28 29 30 31 32 33 34 35 36 36 36 36
30 30 30 30 30 30 30 31 31 31 31 30 30 30 31 31 31 31 32 34 36 36 36 34 33 33 33 33 32 31 30 30 30 30 31 32 33 34 35 35 36 36 36 36 36 37 38 38 38 39 40 40 39 40 41 40 38 36 33 30 31 31 29 30 34 38 39 36 31 28 28 29 29 29 30 31 33 34 35 36 37 37 37 37 37
32 32 33 33 33 33 33 33 33 34 34 33 33 33 33 33 34 33 33 33 34 36 36 35 34 34 33 33 33 33 33 32 32 32 32 33 34 36 37 38 39 39 39 38 37 38 39 40 40 40 41 41 41 42 43 43 42 40 35 31 33 39 41 42 44 44 41 37 33 32 31 30 29 29 30 32 34 35 37 38 38 39 39 39 39
34 34 35 35 36 36 36 36 36 37 37 37 37 36 36 36 36 37 37 36 36 36 36 37 36 36 35 35 34 34 35 35 35 35 35 35 36 38 39 40 42 42 42 40 40 40 41 42 42 42 42 42 42 42 43 43 43 42 39 38 42 47 49 48 45 43 42 39 38 38 36 33 31 32 33 35 36 38 39 39 40 40 41 41 41
35 35 36 37 37 38 39 39 39 40 40 40 40 40 40 39 39 39 40 40 40 39 39 39 39 39 39 39 38 38 38 38 39 38 38 39 39 40 42 43 44 45 45 45 45 45 45 44 44 44 44 44 44 43 43 43 43 43 43 44 47 49 49 47 45 44 44 43 41 41 40 38 37 37 37 38 40 41 41 41 42 42 42 42 43
35 35 36 37 37 38 39 40 40 41 41 42 43 43 43 43 43 43 43 43 43 43 43 43 43 43 43 43 42 42 42 42 42 42 42 42 42 42 44 45 46 47 48 48 48 48 48 48 47 47 47 47 46 45 44 44 44 44 44 44 45 45 45 45 45 44 43 43 43 42 41 41 41 41 41 42 43 44 44 44 44 44 44 44 45
35 35 36 36 37 37 38 39 40 40 41 42 43 44 45 45 46 46 46 46 46 46 46 46 46 46 46 46 46 46 46 46 46 46 46 45 45 45 45 46 47 48 49 50 50 50 50 50 50 51 50 50 50 48 47 45 44 45 46 46 46 45 45 45 45 45 45 45 45 44 43 44 43 44 45 46 47 47 47 47 47 47 47 47 47
35 36 36 37 37 37 38 39 40 40 41 41 41 42 43 44 45 47 47 48 48 48 49 49 50 50 49 49 50 50 50 50 50 50 50 50 49 48 48 48 49 50 50 51 52 52 52 52 52 53 53 53 53 53 52 51 49 49 50 51 51 49 48 48 49 49 48 48 48 49 48 48 48 48 49 49 50 51 51 51 51 51 51 51 51
36 37 37 38 39 39 39 40 41 42 42 42 43 43 43 43 44 45 46 47 48 49 49 50 51 51 51 52 52 52 52 53 53 54 54 54 54 53 52 52 52 52 52 52 53 53 54 54 54 54 54 55 55 55 55 56 55 54 54 54 54 53 53 53 54 52 49 50 53 54 54 53 52 51 51 52 53 54 54 54 54 55 55 55 55
37 38 39 40 41 41 42 42 42 42 43 44 45 45 45 45 45 45 45 46 47 48 48 49 50 51 52 52 53 53 53 53 54 55 55 56 56 56 56 56 55 55 55 55 55 55 55 56 56 56 56 56 56 56 56 56 57 56 57 57 57 56 56 57 57 55 53 52 54 55 56 56 56 56 56 56 56 57 57 58 58 58 58 58 57
36 37 39 40 42 43 44 44 45 45 45 45 46 46 47 48 48 47 47 47 47 47 48 48 49 50 50 51 52 53 54 54 55 55 56 56 57 57 57 58 57 57 57 57 57 57 57 57 58 58 58 58 58 57 57 56 56 55 55 56 57 58 58 59 60 60 59 58 58 59 60 61 63 63 62 61 61 61 61 62 62 61 60 60 60
37 37 38 39 40 41 43 44 45 46 47 47 47 47 48 49 50 50 50 49 49 49 49 49 50 50 50 50 51 51 52 53 54 55 56 56 57 57 58 58 58 58 58 58 58 58 58 57 58 58 59 59 59 59 58 58 56 55 54 55 56 57 58 58 59 59 60 60 61 62 64 65 67 67 67 66 66 66 66 66 65 64 63 63 63
39 40 40 40 40 41 42 43 44 45 46 47 47 48 48 49 50 51 52 52 52 52 51 51 51 51 51 51 51 51 51 52 52 53 54 55 56 57 58 58 58 58 58 58 58 58 58 58 58 58 58 59 59 59 59 59 59 57 56 55 55 55 55 56 57 57 58 59 60 62 64 66 69 70 72 72 72 71 69 67 67 66 66 67 68
41 42 43 43 43 43 43 43 44 44 45 45 46 47 48 49 50 51 52 53 54 55 55 54 53 53 52 52 52 52 52 52 52 52 53 53 54 55 56 57 57 57 57 57 57 57 57 58 58 58 58 58 58 58 59 59 59 59 59 59 58 57 57 57 57 57 58 59 61 62 63 65 67 71 74 75 74 72 69 67 67 69 70 72 73
42 43 44 44 45 45 45 45 45 46 46 47 47 47 48 49 49 50 51 52 54 55 56 57 57 56 55 54 54 54 54 54 53 53 53 53 53 53 54 55 55 56 56 56 56 56 56 56 56 56 57 57 57 57 57 57 57 58 59 59 59 59 59 59 59 59 61 62 64 66 66 66 68 70 72 73 72 71 70 70 71 73 75 76 77
44 44 44 44 45 45 46 46 46 47 47 48 48 49 49 50 50 51 51 52 53 54 55 56 58 59 59 58 57 56 55 55 55 55 55 54 54 54 54 54 54 55 55 55 55 55 55 54 54 54 54 55 55 55 56 56 56 56 56 56 56 57 57 58 57 58 58 59 61 62 63 64 66 67 68 68 68 68 68 68 69 70 71 72 72
44 44 44 45 45 45 45 46 47 47 48 48 49 50 51 51 51 52 52 53 53 54 54 55 56 57 59 60 60 60 58 57 56 56 56 56 56 56 55 55 55 55 55 55 55 55 55 54 53 53 53 53 54 54 54 54 55 55 55 56 56 57 58 59 59 58 57 56 56 56 57 58 59 59 60 60 60 61 61 62 62 63 64 65 65
44 44 45 45 46 46 47 47 48 48 49 50 51 51 52 52 52 53 53 54 54 55 55 55 56 56 57 58 60 60 61 60 59 58 57 57 57 57 57 57 57 56 56 56 55 56 55 55 55 54 54 54 54 54 54 54 54 55 55 55 56 57 58 59 61 61 61 60 59 58 58 58 58 58 59 59 58 58 57 57 57 57 57 58 58
45 45 46 47 47 47 48 48 49 49 50 50 51 52 52 53 53 53 54 54 55 55 56 56 56 56 57 57 58 59 59 60 60 60 59 58 57 57 57 57 57 57 57 57 56 56 56 56 56 56 56 55 55 55 55 55 55 55 55 55 56 56 57 58 59 60 61 61 61 60 60 59 59 59 58 58 58 58 58 57 57 57 57 56 56
45 46 46 47 47 48 48 49 49 50 50 50 51 52 52 53 53 54 54 55 55 55 56 56 56 56 57 57 57 57 58 58 58 58 58 58 58 58 57 57 57 57 57 57 57 56 56 56 56 56 55 55 55 55 55 55 55 55 55 55 55 56 56 56 57 57 58 58 59 59 59 59 58 57 56 55 55 55 55 56 56 56 56 56 56
45 45 45 46 46 47 48 49 49 50 50 51 51 51 52 53 53 54 54 55 55 55 55 56 56 56 56 56 56 56 56 57 57 57 57 57 57 57 57 57 57 56 56 56 56 55 55 55 55 54 54 54 54 54 53 53 53 53 53 54 54 55 55 55 55 56 56 56 56 57 57 56 56 56 55 54 53 52 52 51 51 50 50 50 50
45 45 46 47 47 48 48 49 49 50 50 51 51 52 52 52 53 53 53 54 54 54 54 55 56 56 56 56 56 55 55 55 55 56 56 56 56 56 56 56 56 55 55 54 54 53 53 53 53 53 52 52 51 51 50 50 50 49 50 50 50 51 51 52 52 52 53 53 53 53 53 54 54 54 54 54 53 52 52 51 50 49 48 47 47
46 46 47 46 46 46 45 46 46 47 48 49 50 51 52 52 52 52 52 53 53 53 53 54 55 55 55 55 55 55 55 55 55 55 55 55 55 55 55 55 55 55 54 54 53 52 52 52 52 51 51 50 50 49 49 48 48 48 48 48 48 48 48 48 48 49 49 49 49 49 50 50 50 50 50 50 50 50 50 50 49 49 48 48 47
Wind_Direction
216 215 216 218 220 223 225 227 229 231 232 229 227 227 226 225 224 222 223 225 227 230 232 232 233 235 236 235 230 225 225 226 226 226 226 226 226 226 227 228 228 227 226 228 232 235 239 245 247 253 264 272 280 289 294 295 294 291 291 296 299 299 298 301 303 303 305 310 313 316 317 317 317 321 324 325 327 331 336 340 342 345 346 344 342
217 217 217 218 220 222 224 226 229 232 233 232 230 229 228 227 225 223 222 223 225 228 230 231 232 233 234 234 232 228 225 224 224 225 224 224 224 224 225 228 229 230 229 229 230 234 239 246 250 256 261 261 261 268 281 290 295 296 296 298 294 291 290 291 294 295 295 299 302 303 305 308 311 313 316 319 321 325 331 336 337 339 342 341 339
220 221 221 222 222 223 224 225 227 229 231 232 232 231 230 228 226 223 223 224 225 225 225 227 229 231 232 231 230 228 225 223 223 223 222 222 224 223 222 226 229 232 234 234 236 240 245 250 255 262 265 261 253 251 257 270 279 286 291 294 295 294 294 295 296 295 295 296 299 300 302 305 306 306 309 314 319 322 327 332 333 334 339 341 338
224 226 226 227 228 228 228 228 228 228 229 230 231 232 231 230 228 226 226 226 225 225 223 223 226 228 229 229 228 228 227 226 225 225 224 223 224 224 223 225 227 230 232 235 239 244 248 253 260 267 272 272 270 268 268 270 272 275 280 286 293 293 292 292 292 292 293 294 297 299 299 299 300 300 304 309 313 316 321 327 329 330 335 339 337
225 227 230 231 232 233 233 233 232 232 231 230 230 231 232 233 231 230 230 229 228 227 225 224 224 226 228 229 230 230 229 230 230 229 229 229 228 227 227 226 227 229 230 232 236 239 243 248 254 259 265 270 275 278 280 282 283 283 285 287 289 289 288 287 287 286 287 287 288 290 292 293 294 295 299 304 307 309 313 320 325 325 328 333 332
226 227 231 233 235 236 237 237 236 236 235 234 233 231 231 232 233 233 234 233 232 231 230 229 228 228 229 230 231 231 231 231 233 232 231 232 232 231 231 231 232 233 234 235 238 240 242 244 248 253 257 260 264 269 273 277 280 282 285 287 289 290 289 289 288 287 287 286 285 284 285 288 290 292 296 301 304 306 309 313 317 317 319 323 325
224 225 229 233 235 237 237 238 239 239 239 239 237 236 234 232 232 233 235 237 237 237 236 236 235 235 235 234 233 233 232 232 234 235 233 232 233 233 234 234 235 237 239 240 242 245 246 247 250 254 258 261 264 267 269 270 272 276 281 286 290 292 292 291 290 290 290 290 289 289 289 290 291 291 292 295 299 303 307 310 312 313 314 317 319
223 224 228 230 232 233 235 237 238 239 240 242 242 241 239 237 236 235 236 238 240 241 241 241 242 243 243 243 240 238 235 234 235 236 236 235 235 236 236 236 238 239 241 243 245 247 249 250 251 254 258 261 264 267 269 270 271 273 276 280 284 286 288 289 289 291 292 292 293 294 295 295 294 292 292 293 296 299 303 306 308 311 313 314 316
224 227 228 229 229 231 234 238 239 238 237 239 242 244 243 242 241 240 240 241 243 244 245 245 245 246 248 248 248 245 242 239 238 238 238 238 238 239 239 238 238 239 241 244 247 248 250 252 255 257 259 260 262 264 268 271 272 273 275 277 279 279 280 283 285 287 289 290 291 292 294 294 294 295 294 294 296 298 299 301 303 306 310 311 313
226 227 227 229 231 231 231 236 241 240 237 236 238 242 245 245 244 244 243 244 246 247 249 249 249 249 249 249 249 250 249 247 245 243 242 241 241 242 242 242 241 241 243 246 248 250 252 254 256 258 260 261 263 264 266 269 270 272 274 276 278 279 279 281 283 283 284 286 288 289 290 291 293 294 295 295 297 298 298 299 300 302 305 306 308
230 230 230 231 233 232 231 236 242 244 243 242 241 240 242 246 247 246 245 244 245 246 248 249 251 251 251 250 249 249 250 251 250 249 248 246 245 245 245 245 245 245 246 247 249 250 251 253 255 257 259 260 261 262 264 267 269 271 274 276 278 278 278 280 280 280 282 285 286 287 288 288 290 291 291 293 294 295 296 297 297 298 299 301 303
234 233 233 235 236 236 236 238 241 244 245 247 248 244 240 242 245 247 246 245 244 243 244 245 246 248 249 250 250 249 248 249 250 251 251 251 250 250 250 250 249 248 248 248 249 249 249 251 253 254 256 258 260 264 268 272 274 274 275 277 278 279 280 280 280 280 283 286 287 288 288 289 289 289 288 288 289 291 293 294 294 293 293 295 297
241 239 237 238 238 240 242 241 242 244 243 242 246 247 242 239 241 245 247 247 245 243 243 243 244 245 246 246 248 249 249 249 248 249 250 251 251 251 252 253 252 251 251 251 250 251 251 251 252 254 257 259 263 265 266 268 269 268 270 274 279 282 282 282 282 283 284 286 287 288 290 289 288 287 286 286 286 287 288 290 290 290 289 290 292
243 242 241 241 242 244 246 246 246 246 243 240 241 246 246 242 240 241 245 247 248 247 245 245 244 245 246 246 246 247 248 250 251 251 251 252 251 251 252 253 252 252 252 252 252 253 253 254 254 256 258 261 263 263 261 260 261 262 265 270 275 278 281 281 282 282 283 285 286 288 291 291 288 286 285 285 284 284 285 286 287 288 288 288 289
243 240 239 241 244 246 248 250 249 249 248 244 239 239 244 245 240 238 240 244 248 251 250 248 246 246 247 248 248 249 249 251 254 255 255 255 255 254 253 254 255 254 253 253 253 253 253 255 256 257 259 260 261 261 261 261 261 261 262 266 270 273 277 279 279 279 280 282 283 285 288 289 289 287 284 283 283 283 283 284 285 286 287 287 288
245 240 239 244 248 248 249 249 250 250 250 248 243 238 241 245 243 240 238 239 243 248 250 250 247 246 246 247 249 250 249 249 252 256 259 260 260 258 257 256 257 258 257 256 256 255 255 256 256 257 258 259 259 259 260 261 263 264 265 268 270 271 274 278 279 279 280 281 282 283 283 284 285 286 285 284 284 284 284 283 282 283 284 285 286
245 241 252 268 270 262 258 255 254 255 253 250 246 241 239 242 245 244 241 238 238 239 243 248 249 247 246 246 247 248 248 247 248 253 259 263 264 261 259 257 257 259 259 259 258 258 258 257 257 257 257 258 258 258 259 260 262 265 268 269 270 272 275 279 280 281 283 284 283 282 280 280 281 281 281 282 283 284 283 282 280 279 280 281 282
250 245 255 271 271 265 266 261 253 251 250 248 247 243 238 239 240 238 236 236 237 237 238 243 248 248 246 247 247 247 247 246 243 241 245 255 262 262 259 258 257 258 259 259 259 259 259 258 258 257 256 255 256 256 258 259 261 265 269 269 268 268 272 278 282 283 285 286 285 282 279 279 279 278 278 279 280 280 280 279 278 277 276 276 277
267 263 258 251 244 252 266 264 251 246 246 246 244 240 237 237 238 235 232 232 235 237 238 240 243 244 243 243 244 245 246 244 241 236 234 243 254 259 257 256 256 255 255 256 257 258 259 259 260 259 257 256 256 256 258 260 263 267 272 273 270 269 272 278 280 278 278 281 283 280 277 277 279 278 278 279 280 279 277 276 275 275 275 274 274
279 276 269 261 259 261 270 276 268 257 254 253 248 241 235 234 236 236 235 234 235 238 240 241 242 242 241 239 239 242 244 241 239 237 235 239 248 253 254 254 255 255 254 254 255 257 258 260 261 261 259 258 257 259 260 262 265 267 270 273 274 273 273 274 275 273 272 274 277 276 275 276 277 276 278 282 285 284 279 273 272 273 274 273 273
282 281 277 275 274 274 276 281 281 271 264 261 257 248 239 234 234 236 236 235 236 238 240 243 244 244 243 241 240 242 243 240 239 239 239 242 248 252 253 254 255 255 254 254 254 255 257 259 262 263 263 262 260 261 262 264 267 270 272 274 275 276 275 273 273 273 273 275 276 273 272 275 276 277 282 288 291 289 282 274 271 272 272 273 274
279 281 281 280 279 279 279 280 281 281 282 277 265 253 245 241 240 240 239 236 236 238 240 242 244 245 244 242 242 243 243 241 242 243 244 247 251 252 253 254 255 255 255 254 254 255 256 258 261 263 264 264 263 263 264 265 267 269 270 271 273 275 276 273 272 272 272 275 276 270 267 273 277 281 287 289 289 289 285 277 274 273 274 275 277
277 278 280 279 277 278 278 278 276 276 283 289 280 263 254 248 242 241 241 241 242 243 244 245 247 248 247 246 245 245 244 243 244 245 247 249 251 253 253 254 254 255 255 255 255 256 258 260 261 262 263 264 264 264 264 264 265 266 268 270 271 271 270 269 271 272 270 271 272 267 265 270 275 279 282 280 280 285 286 281 278 277 276 276 277
273 274 276 277 277 276 277 278 276 272 275 281 282 278 275 263 244 237 237 237 237 238 239 240 242 243 245 246 247 247 246 246 246 248 249 250 252 253 254 254 255 256 257 257 257 259 260 261 261 261 262 263 264 263 262 262 264 264 265 267 268 268 266 266 269 271 268 265 264 264 266 269 270 271 270 269 274 283 287 286 285 283 279 278 278
269 268 270 272 272 273 274 275 274 272 271 274 274 274 275 271 260 247 238 234 234 236 237 236 235 237 238 239 243 245 244 245 246 247 248 250 250 250 251 251 252 255 256 256 257 257 257 257 255 255 257 260 261 262 261 260 260 260 262 265 268 268 267 266 265 265 262 259 260 265 269 268 265 262 260 264 273 282 284 285 286 285 283 281 280
265 265 264 266 267 268 270 272 272 270 270 271 270 266 262 262 261 255 245 237 237 243 246 243 240 241 239 236 238 240 240 242 245 243 243 244 244 244 245 246 247 250 252 253 253 253 253 252 251 252 255 258 261 262 261 259 259 260 263 267 268 266 264 262 258 256 257 259 264 269 268 262 258 257 260 267 275 278 280 282 284 284 284 283 282
262 263 262 262 263 263 264 266 268 267 266 267 267 264 258 254 254 255 252 247 243 243 246 247 248 251 250 248 248 247 243 244 247 246 244 246 246 247 249 251 251 252 254 256 256 256 256 255 254 255 258 261 264 265 264 262 262 264 266 266 263 258 255 255 254 253 257 264 267 266 261 258 258 262 268 274 278 279 280 282 282 283 284 284 284
260 261 261 260 261 262 262 262 263 264 264 262 263 263 261 256 252 253 254 256 256 256 256 256 258 260 261 260 260 259 256 254 254 254 254 255 254 253 254 255 256 257 258 260 261 262 262 261 260 260 262 264 266 266 266 265 266 269 269 265 259 250 243 244 250 254 263 272 273 268 263 261 264 270 275 278 279 280 281 281 280 281 282 283 284
258 258 259 259 259 260 261 262 262 262 263 262 261 262 263 261 258 255 255 257 261 263 263 262 262 263 264 264 264 263 262 260 259 258 258 258 258 257 256 256 257 258 260 261 262 264 264 265 265 265 265 266 266 266 266 266 268 271 269 261 253 247 242 247 256 263 274 282 281 274 268 266 270 276 278 277 276 276 277 278 278 279 280 280 281
259 259 259 259 258 259 260 261 262 262 262 262 261 261 263 264 264 261 259 259 261 263 265 266 264 263 263 265 265 264 262 261 258 256 256 257 259 260 259 259 259 259 259 260 262 264 264 265 266 266 267 267 266 266 267 266 266 269 270 264 256 253 257 268 277 281 285 287 282 275 272 274 276 277 275 273 273 274 276 277 278 278 279 279 278
258 259 259 259 259 259 258 259 260 261 261 261 260 260 261 263 264 265 264 262 261 262 264 265 266 264 263 263 263 263 262 261 259 257 256 255 257 259 261 262 263 263 263 263 262 263 263 264 264 265 265 266 266 267 267 267 266 267 267 264 259 259 265 276 282 284 284 285 282 280 280 279 276 273 270 269 270 271 272 274 275 276 276 276 276
258 259 260 260 260 260 260 259 259 259 260 261 261 260 259 259 261 263 264 264 263 262 263 264 264 265 264 263 261 261 261 261 260 258 257 256 256 258 260 261 263 265 266 265 264 263 264 264 264 264 264 265 267 267 268 269 269 267 263 259 259 263 269 275 277 277 278 279 279 280 281 279 276 273 270 269 269 269 269 270 271 271 272 272 272
260 260 261 261 261 262 262 262 261 261 260 260 261 262 262 261 260 260 261 262 263 262 262 262 262 263 263 262 262 261 260 260 260 259 258 257 256 257 258 260 261 263 264 264 265 265 265 265 265 265 265 265 267 268 269 269 270 269 266 263 262 265 268 270 271 272 274 275 276 278 278 278 278 275 272 271 271 270 270 270 270 270 270 270 270
262 263 263 263 263 263 264 264 264 264 263 262 261 261 262 263 262 261 260 260 261 262 262 261 261 261 261 261 261 261 260 260 260 260 259 258 257 256 257 258 259 261 262 262 264 264 265 265 265 265 265 265 265 266 267 268 268 269 268 266 266 268 269 270 270 270 272 275 277 277 276 276 275 273 272 271 270 270 270 269 269 268 268 268 268
266 266 266 266 266 266 266 266 266 266 266 265 264 262 262 262 263 263 262 261 261 261 261 261 260 260 260 260 260 260 260 260 260 261 261 260 259 258 257 257 258 259 260 260 261 262 263 263 264 264 264 264 264 263 263 264 265 265 265 266 268 269 269 269 269 270 274 277 277 276 275 275 273 271 270 269 269 268 268 268 268 267 267 266 266
271 271 270 269 269 269 269 268 268 269 269 269 268 267 265 264 264 264 264 264 263 262 261 261 260 260 260 260 260 260 260 260 260 260 260 261 261 260 259 258 258 258 258 259 260 260 261 261 262 262 263 264 264 263 262 262 262 262 263 266 268 268 267 267 268 271 275 278 277 274 273 272 271 270 270 268 267 267 267 267 267 267 266 264 263
274 274 273 272 271 271 270 270 269 269 269 270 270 269 268 267 266 265 265 265 265 265 264 263 262 261 261 261 261 261 261 261 261 261 260 260 261 261 260 260 259 259 259 259 259 260 260 261 261 262 262 262 263 263 263 263 262 262 263 264 265 265 265 266 268 270 273 274 272 270 269 269 269 269 269 268 267 267 267 266 266 265 265 264 263
274 274 274 274 273 273 272 271 270 270 269 269 270 270 270 269 268 267 266 266 266 266 266 266 265 264 263 263 262 262 262 262 262 262 262 261 261 261 261 261 261 260 260 260 259 259 260 260 261 261 261 262 262 262 263 263 263 262 262 263 263 263 263 263 264 265 266 265 265 265 266 268 270 271 271 269 268 267 266 266 266 265 264 264 264
277 276 275 275 274 274 273 273 272 271 270 269 269 269 270 270 270 270 269 268 267 266 266 266 266 266 266 265 265 264 263 263 262 262 262 262 262 262 262 262 261 261 261 261 260 260 260 260 261 261 262 262 262 262 263 263 262 262 261 261 262 262 262 263 263 264 263 263 262 262 264 266 269 270 270 269 267 266 265 265 264 263 264 264 265
280 278 277 276 275 275 274 273 273 273 272 271 270 269 268 268 269 269 270 270 269 268 267 266 266 266 266 266 266 266 265 264 264 263 263 263 263 263 263 263 263 262 262 262 261 261 261 261 261 261 262 262 263 263 263 263 262 262 262 262 262 262 263 263 264 264 265 264 264 264 264 266 268 268 268 268 267 266 265 264 263 263 263 265 266
283 281 279 277 275 274 274 273 273 273 272 272 272 271 270 269 268 268 268 269 269 269 268 267 266 266 266 266 266 266 266 265 265 264 264 264 263 263 264 264 264 264 263 263 263 263 262 262 261 261 262 262 263 263 263 263 262 262 261 261 262 263 263 264 265 266 266 267 267 266 266 266 267 267 267 266 264 262 262 262 263 264 265 267 267
285 283 282 280 277 275 274 273 273 273 272 272 272 271 271 271 270 269 268 267 268 268 269 269 268 267 266 265 265 265 265 265 265 264 264 264 264 264 264 264 264 265 264 264 264 264 264 263 263 262 262 262 262 263 263 263 263 261 260 260 260 261 262 263 265 266 268 269 269 269 268 268 268 268 266 263 260 259 259 261 263 265 267 267 267
285 283 282 280 279 277 275 274 273 272 272 272 272 271 271 271 271 270 270 269 268 267 267 268 268 268 268 267 266 265 264 264 264 264 264 264 264 264 264 264 264 265 265 265 265 265 265 265 265 265 264 264 264 264 264 264 264 264 263 262 262 263 264 265 266 266 266 267 267 267 267 268 268 268 266 264 262 261 261 262 264 266 266 266 265
284 282 281 280 279 277 276 274 273 272 272 272 272 272 271 271 271 271 270 270 269 268 267 267 267 267 268 268 267 266 265 264 264 263 264 264 264 264 264 264 264 264 265 265 266 266 266 266 266 266 266 266 266 266 266 267 267 267 266 265 265 265 266 267 268 268 267 266 266 267 267 268 268 268 268 268 267 267 267 267 268 269 270 270 270
283 282 281 280 279 278 277 275 274 273 273 272 272 272 272 271 271 271 270 270 269 269 268 267 266 266 266 267 267 267 267 266 265 264 263 263 263 263 263 263 263 264 264 265 266 266 267 267 267 267 267 267 267 267 267 267 267 268 268 268 267 266 266 267 268 269 270 270 270 271 271 272 272 273 274 274 275 275 276 276 276 277 277 277 277
283 283 282 281 280 279 278 277 276 275 274 273 272 272 272 271 271 271 270 269 269 268 268 267 267 266 266 265 265 266 266 267 267 266 265 264 264 263 263 264 264 264 264 264 264 265 266 266 267 267 267 267 267 267 268 267 267 268 268 268 268 268 267 268 269 270 272 274 275 275 276 276 276 277 277 278 279 279 279 280 280 280 280 280 280
283 283 282 281 281 280 278 277 276 275 274 274 273 272 272 271 271 270 269 269 268 268 267 267 267 266 266 265 265 265 265 266 266 267 267 267 266 265 264 264 264 264 264 264 264 265 265 265 266 266 267 268 268 268 269 269 269 269 269 269 269 269 269 270 270 271 273 275 276 278 279 280 280 280 280 280 280 280 280 281 281 281 282 282 282
284 283 282 281 281 280 279 278 277 276 275 274 273 272 272 271 270 269 269 268 268 267 267 267 266 266 266 266 266 265 265 265 265 265 265 266 266 266 266 266 265 265 265 265 266 266 266 266 266 267 267 268 268 269 269 270 270 270 271 271 271 271 271 271 272 272 273 274 276 277 279 280 282 283 284 284 283 283 283 283 283 283 283 283 283
284 283 282 281 281 280 279 279 278 277 276 275 273 272 271 271 270 269 269 268 268 267 267 267 266 266 265 265 266 265 265 265 265 265 265 265 265 266 266 266 266 266 266 266 266 267 267 267 268 268 268 269 269 269 270 271 271 272 272 272 273 273 274 274 274 274 275 275 276 277 278 279 280 282 283 284 285 285 285 285 285 285 285 284 284
286 285 284 283 282 281 280 280 279 277 276 275 274 273 272 271 270 269 269 268 268 268 267 267 266 266 265 265 265 265 265 264 264 264 264 264 265 265 265 266 266 266 266 266 266 266 267 267 267 268 268 269 269 270 271 271 272 272 273 273 274 274 275 275 276 276 277 277 278 278 279 279 280 281 282 283 284 285 286 287 287 288 288 288 287
288 287 286 285 284 283 283 281 280 279 277 275 274 273 271 271 270 269 269 269 268 268 267 267 267 266 266 265 265 265 264 264 264 264 264 264 264 264 265 265 265 265 265 265 265 265 265 266 267 267 267 268 268 269 269 270 271 273 274 275 275 276 276 277 277 278 278 279 280 280 281 281 282 283 283 284 285 285 286 287 288 288 289 289 289
Height
5912 5914 5915 5916 5918 5919 5920 5921 5922 5923 5924 5925 5926 5926 5927 5928 5929 5930 5931 5932 5933 5934 5935 5936 5937 5937 5938 5938 5938 5939 5939 5940 5940 5941 5941 5942 5943 5943 5944 5945 5945 5946 5946 5946 5946 5946 5946 5946 5946 5946 5946 5946 5946 5946 5946 5945 5945 5945 5945 5945 5944 5944 5944 5944 5944 5944 5944 5944 5944 5944 5943 5942 5942 5941 5941 5940 5940 5939 5938 5938 5936 5935 5934 5933 5931
5910 5911 5912 5914 5915 5916 5918 5919 5920 5922 5923 5924 5924 5925 5926 5926 5927 5928 5929 5929 5931 5932 5933 5934 5935 5936 5936 5937 5937 5938 5938 5938 5939 5939 5940 5940 5941 5942 5943 5943 5944 5944 5944 5945 5945 5945 5945 5945 5945 5945 5945 5945 5945 5945 5944 5944 5944 5944 5944 5944 5944 5943 5943 5943 5943 5943 5943 5943 5943 5943 5942 5942 5941 5940 5940 5939 5939 5938 5938 5937 5936 5935 5934 5933 5932
5908 5909 5911 5912 5913 5914 5916 5917 5918 5920 5921 5922 5922 5923 5924 5925 5926 5926 5927 5928 5929 5930 5931 5932 5933 5934 5935 5936 5936 5937 5937 5937 5937 5938 5938 5939 5939 5940 5941 5942 5942 5943 5943 5943 5944 5944 5944 5944 5944 5944 5944 5944 5944 5944 5943 5943 5943 5943 5943 5943 5943 5943 5942 5942 5942 5942 5942 5942 5941 5941 5941 5941 5940 5939 5939 5938 5937 5937 5936 5936 5935 5935 5934 5933 5931
5907 5908 5909 5910 5911 5912 5914 5915 5916 5917 5919 5920 5920 5921 5922 5923 5924 5925 5925 5926 5927 5928 5929 5930 5931 5932 5933 5934 5935 5935 5936 5936 5936 5937 5937 5937 5938 5939 5939 5940 5940 5941 5941 5942 5942 5942 5943 5943 5943 5943 5943 5943 5943 5943 5943 5942 5942 5942 5942 5942 5942 5942 5941 5941 5941 5941 5941 5940 5940 5940 5940 5940 5939 5938 5937 5937 5936 5936 5935 5935 5934 5933 5933 5932 5931
5905 5906 5907 5908 5909 5911 5912 5913 5914 5915 5916 5917 5918 5919 5920 5922 5923 5924 5924 5925 5926 5926 5927 5928 5929 5930 5931 5932 5933 5934 5934 5935 5935 5935 5936 5936 5936 5937 5937 5938 5938 5939 5939 5940 5940 5941 5941 5941 5942 5942 5942 5942 5942 5942 5942 5942 5941 5941 5941 5941 5941 5941 5940 5940 5940 5940 5939 5939 5939 5939 5939 5939 5938 5937 5936 5935 5935 5934 5934 5934 5933 5932 5932 5931 5930
5903 5904 5905 5906 5908 5909 5910 5911 5912 5912 5913 5914 5915 5916 5918 5919 5921 5922 5923 5923 5924 5925 5926 5927 5927 5928 5929 5930 5931 5932 5933 5933 5934 5934 5934 5935 5935 5936 5936 5936 5937 5937 5938 5938 5938 5939 5939 5940 5940 5940 5940 5940 5940 5941 5941 5941 5940 5940 5940 5940 5940 5940 5939 5939 5938 5938 5938 5938 5938 5938 5938 5937 5937 5936 5935 5934 5933 5932 5931 5931 5932 5931 5930 5930 5929
5900 5901 5901 5903 5905 5906 5907 5908 5909 5910 5911 5911 5912 5913 5914 5916 5917 5919 5920 5921 5922 5923 5924 5925 5925 5926 5927 5928 5929 5930 5931 5931 5932 5932 5933 5933 5933 5934 5934 5935 5935 5935 5936 5936 5937 5937 5937 5938 5938 5938 5939 5939 5939 5939 5939 5939 5939 5939 5939 5939 5939 5938 5938 5937 5937 5937 5937 5936 5936 5936 5936 5936 5936 5935 5934 5933 5932 5931 5929 5929 5929 5929 5929 5928 5927
5896 5897 5897 5899 5902 5903 5903 5905 5906 5907 5908 5909 5910 5911 5912 5913 5914 5915 5917 5918 5920 5921 5922 5923 5923 5924 5925 5926 5927 5928 5928 5929 5929 5930 5931 5931 5931 5932 5932 5933 5933 5933 5934 5934 5934 5935 5935 5936 5936 5936 5936 5937 5937 5937 5937 5937 5937 5937 5937 5937 5937 5937 5937 5936 5936 5935 5935 5935 5934 5934 5934 5934 5934 5933 5933 5932 5931 5930 5929 5928 5927 5927 5927 5926 5926
5891 5893 5894 5896 5898 5899 5901 5902 5903 5904 5905 5906 5907 5908 5909 5910 5911 5912 5914 5915 5917 5918 5920 5921 5921 5922 5923 5923 5924 5925 5926 5926 5927 5927 5928 5929 5929 5930 5930 5931 5931 5931 5932 5932 5932 5933 5933 5933 5934 5934 5934 5935 5935 5935 5935 5935 5935 5935 5935 5935 5935 5935 5935 5934 5934 5933 5933 5932 5932 5932 5932 5931 5931 5931 5931 5930 5929 5929 5928 5927 5926 5925 5924 5924 5923
5888 5889 5891 5893 5894 5895 5897 5897 5899 5901 5901 5902 5904 5905 5906 5907 5908 5909 5911 5912 5913 5915 5916 5917 5919 5919 5920 5921 5922 5923 5924 5924 5924 5925 5925 5926 5927 5927 5928 5929 5929 5929 5929 5930 5930 5930 5931 5931 5931 5932 5932 5932 5932 5932 5932 5932 5932 5932 5933 5933 5933 5933 5933 5932 5932 5931 5931 5930 5930 5929 5929 5928 5928 5928 5928 5927 5927 5926 5926 5925 5924 5923 5923 5922 5921
5885 5887 5889 5890 5890 5892 5893 5894 5895 5897 5899 5900 5900 5902 5903 5905 5906 5907 5907 5908 5909 5910 5912 5913 5915 5916 5916 5917 5918 5920 5920 5921 5921 5922 5923 5923 5924 5925 5926 5926 5927 5927 5927 5927 5927 5927 5928 5928 5928 5929 5929 5929 5930 5929 5930 5930 5930 5930 5930 5930 5930 5930 5930 5930 5930 5930 5929 5928 5927 5927 5926 5926 5925 5925 5925 5924 5924 5923 5923 5922 5921 5921 5920 5920 5919
5882 5884 5886 5886 5887 5889 5890 5890 5891 5893 5895 5897 5897 5898 5899 5900 5902 5903 5903 5904 5905 5906 5907 5908 5909 5911 5912 5913 5914 5915 5916 5917 5917 5918 5919 5920 5921 5922 5923 5924 5924 5924 5924 5924 5924 5924 5925 5925 5925 5926 5926 5927 5927 5927 5928 5928 5928 5928 5928 5928 5928 5928 5928 5927 5927 5927 5927 5926 5925 5925 5924 5924 5923 5922 5922 5921 5921 5920 5920 5919 5918 5918 5918 5917 5917
5877 5879 5881 5882 5884 5885 5885 5886 5887 5888 5890 5892 5893 5893 5894 5895 5896 5898 5899 5900 5900 5901 5902 5903 5904 5905 5907 5908 5910 5911 5911 5912 5913 5914 5915 5916 5918 5919 5920 5920 5920 5921 5921 5921 5921 5921 5921 5922 5922 5923 5923 5924 5925 5925 5925 5926 5925 5924 5925 5925 5925 5925 5925 5924 5924 5924 5924 5924 5923 5922 5922 5921 5920 5920 5919 5918 5918 5917 5916 5916 5915 5915 5915 5915 5914
5872 5873 5875 5877 5879 5881 5880 5881 5882 5882 5884 5887 5888 5888 5888 5889 5891 5892 5893 5895 5896 5897 5898 5899 5900 5901 5902 5903 5905 5906 5906 5907 5908 5909 5911 5912 5914 5915 5916 5916 5916 5917 5918 5918 5918 5918 5918 5918 5919 5920 5920 5921 5921 5920 5920 5921 5921 5921 5922 5922 5922 5922 5922 5922 5921 5921 5921 5921 5920 5920 5919 5918 5917 5916 5916 5915 5914 5914 5913 5912 5912 5912 5911 5911 5911
5867 5868 5871 5873 5875 5875 5875 5875 5876 5877 5879 5882 5883 5882 5883 5883 5884 5885 5886 5890 5893 5894 5895 5895 5895 5896 5898 5899 5901 5901 5902 5903 5904 5906 5907 5908 5910 5911 5912 5913 5913 5914 5914 5914 5914 5914 5914 5915 5916 5917 5917 5917 5917 5917 5917 5917 5917 5917 5918 5918 5919 5919 5918 5918 5918 5918 5917 5917 5917 5917 5916 5915 5913 5913 5912 5911 5911 5910 5910 5909 5909 5908 5908 5908 5908
5864 5865 5867 5869 5869 5870 5870 5870 5871 5872 5873 5876 5877 5878 5879 5879 5878 5879 5882 5886 5888 5889 5890 5891 5891 5892 5894 5895 5896 5897 5898 5899 5900 5901 5903 5904 5906 5907 5909 5909 5910 5910 5910 5911 5911 5911 5911 5911 5912 5913 5913 5914 5913 5913 5914 5913 5914 5914 5914 5915 5916 5916 5915 5915 5915 5914 5914 5913 5913 5913 5912 5911 5910 5909 5908 5908 5907 5907 5907 5906 5906 5904 5904 5904 5903
5861 5861 5864 5865 5865 5864 5865 5865 5866 5867 5868 5869 5870 5873 5875 5875 5874 5877 5881 5882 5882 5883 5884 5885 5887 5888 5889 5890 5891 5893 5893 5894 5895 5897 5899 5900 5901 5902 5904 5904 5905 5906 5906 5906 5907 5907 5907 5907 5908 5909 5909 5910 5909 5909 5909 5909 5910 5911 5910 5910 5911 5912 5912 5912 5911 5911 5911 5910 5909 5909 5908 5907 5906 5905 5905 5904 5903 5903 5902 5902 5902 5901 5900 5899 5899
5857 5858 5861 5862 5860 5859 5860 5860 5860 5861 5862 5862 5863 5866 5869 5869 5869 5872 5875 5875 5876 5876 5877 5879 5881 5883 5884 5886 5888 5889 5889 5890 5891 5891 5894 5896 5896 5897 5898 5899 5900 5901 5901 5902 5902 5903 5903 5903 5904 5904 5905 5905 5905 5904 5905 5905 5906 5906 5905 5905 5906 5907 5907 5907 5907 5907 5907 5906 5906 5905 5904 5903 5902 5901 5901 5900 5900 5899 5898 5898 5898 5897 5896 5895 5895
5854 5855 5857 5858 5856 5856 5856 5855 5855 5856 5856 5856 5857 5859 5862 5863 5864 5866 5867 5867 5869 5870 5872 5874 5875 5876 5879 5882 5883 5884 5886 5887 5887 5886 5887 5890 5892 5893 5894 5894 5895 5896 5897 5898 5898 5898 5899 5899 5900 5900 5901 5901 5900 5900 5900 5901 5901 5901 5901 5901 5902 5902 5902 5902 5902 5902 5902 5902 5901 5901 5900 5899 5898 5898 5897 5896 5895 5894 5894 5893 5893 5892 5892 5891 5890
5850 5851 5853 5854 5853 5852 5852 5852 5852 5852 5852 5852 5851 5852 5855 5858 5859 5860 5861 5862 5864 5865 5866 5868 5869 5871 5874 5876 5877 5879 5881 5883 5883 5882 5883 5885 5887 5889 5889 5889 5890 5891 5892 5893 5894 5894 5895 5895 5895 5896 5896 5897 5897 5896 5896 5896 5896 5897 5897 5897 5897 5897 5898 5898 5897 5895 5895 5896 5896 5896 5896 5895 5894 5893 5893 5892 5890 5890 5889 5888 5888 5888 5887 5886 5886
5848 5848 5849 5850 5849 5849 5849 5849 5849 5849 5848 5848 5848 5849 5850 5852 5853 5855 5856 5858 5860 5861 5862 5864 5865 5866 5869 5871 5872 5873 5876 5878 5879 5879 5879 5880 5882 5883 5884 5885 5885 5887 5888 5889 5889 5890 5890 5890 5891 5891 5892 5892 5892 5892 5891 5891 5892 5893 5893 5893 5893 5893 5893 5893 5892 5890 5889 5890 5891 5891 5891 5890 5889 5889 5888 5888 5886 5885 5884 5884 5884 5883 5883 5882 5882
5845 5845 5845 5846 5846 5846 5846 5846 5847 5847 5846 5845 5845 5845 5846 5847 5849 5851 5852 5853 5855 5857 5858 5860 5861 5862 5863 5865 5867 5868 5870 5872 5874 5874 5875 5876 5877 5878 5879 5880 5881 5882 5883 5884 5885 5885 5885 5886 5886 5887 5887 5887 5887 5887 5886 5886 5886 5887 5888 5888 5888 5887 5887 5887 5887 5886 5884 5884 5886 5886 5886 5885 5885 5885 5884 5884 5883 5882 5880 5880 5880 5880 5879 5879 5878
5841 5841 5842 5842 5843 5843 5843 5843 5844 5845 5844 5844 5844 5843 5843 5843 5845 5846 5848 5850 5851 5853 5854 5856 5856 5857 5859 5860 5861 5863 5864 5866 5868 5869 5870 5871 5872 5872 5873 5874 5875 5877 5878 5879 5879 5880 5880 5881 5881 5881 5881 5881 5881 5881 5881 5880 5880 5880 5881 5882 5881 5881 5881 5881 5880 5880 5880 5880 5880 5880 5880 5880 5881 5881 5880 5880 5880 5879 5877 5877 5876 5876 5875 5875 5875
5838 5838 5838 5839 5840 5840 5840 5840 5841 5841 5842 5842 5843 5843 5843 5842 5842 5843 5844 5846 5847 5848 5849 5851 5851 5853 5853 5854 5856 5857 5859 5860 5862 5863 5865 5866 5867 5867 5868 5869 5870 5871 5872 5873 5874 5874 5875 5875 5875 5875 5876 5876 5875 5875 5875 5875 5874 5875 5875 5875 5875 5875 5875 5876 5875 5875 5874 5874 5874 5874 5874 5875 5875 5876 5876 5875 5876 5875 5874 5873 5873 5872 5871 5871 5871
5835 5835 5836 5836 5836 5837 5837 5837 5837 5838 5839 5839 5840 5841 5842 5842 5841 5841 5841 5842 5844 5845 5846 5847 5848 5849 5850 5851 5852 5852 5854 5855 5857 5858 5859 5860 5861 5862 5862 5864 5865 5866 5866 5867 5868 5868 5868 5869 5869 5869 5870 5870 5870 5870 5870 5870 5869 5869 5869 5869 5869 5870 5870 5870 5870 5869 5868 5867 5868 5868 5869 5870 5870 5870 5871 5871 5872 5872 5870 5869 5869 5868 5868 5867 5867
5831 5832 5832 5832 5833 5833 5833 5833 5834 5834 5835 5836 5836 5838 5839 5840 5840 5840 5840 5840 5841 5842 5842 5843 5844 5845 5846 5848 5848 5848 5850 5852 5852 5852 5853 5854 5855 5856 5857 5859 5860 5861 5861 5861 5862 5862 5863 5863 5864 5864 5865 5865 5865 5865 5865 5865 5864 5865 5865 5865 5865 5865 5863 5862 5863 5863 5861 5861 5862 5863 5863 5864 5865 5865 5866 5867 5867 5867 5866 5865 5864 5864 5864 5863 5863
5826 5827 5828 5829 5829 5829 5830 5830 5830 5831 5831 5832 5832 5833 5834 5836 5837 5837 5837 5837 5838 5838 5839 5840 5840 5841 5842 5843 5843 5843 5845 5846 5845 5846 5847 5849 5850 5852 5853 5854 5855 5855 5856 5857 5857 5857 5858 5858 5859 5859 5859 5860 5859 5859 5860 5860 5860 5861 5861 5860 5859 5857 5856 5855 5855 5856 5856 5857 5857 5858 5859 5859 5860 5861 5862 5862 5862 5861 5861 5860 5860 5860 5859 5859 5859
5822 5823 5823 5824 5825 5825 5826 5826 5826 5827 5828 5828 5829 5829 5830 5831 5832 5833 5833 5834 5834 5834 5835 5836 5836 5837 5837 5838 5839 5840 5841 5841 5841 5842 5843 5845 5846 5847 5848 5849 5849 5850 5851 5852 5852 5852 5853 5853 5854 5855 5855 5855 5855 5854 5854 5855 5855 5856 5855 5854 5852 5851 5850 5850 5851 5851 5851 5853 5854 5855 5855 5855 5855 5856 5856 5856 5856 5856 5855 5855 5855 5855 5854 5854 5854
5818 5819 5819 5820 5820 5821 5821 5822 5822 5823 5823 5824 5825 5825 5825 5826 5827 5828 5829 5829 5829 5830 5831 5831 5832 5832 5833 5834 5835 5836 5837 5837 5838 5839 5840 5841 5842 5843 5843 5844 5844 5845 5845 5846 5847 5847 5847 5848 5849 5850 5850 5850 5850 5850 5849 5850 5851 5851 5850 5849 5848 5847 5846 5846 5847 5847 5848 5848 5849 5850 5850 5850 5850 5851 5851 5851 5850 5850 5850 5850 5850 5850 5849 5849 5849
5814 5814 5815 5815 5816 5816 5817 5817 5818 5818 5819 5819 5820 5820 5821 5821 5822 5823 5824 5824 5825 5825 5825 5826 5827 5827 5828 5829 5830 5831 5831 5832 5833 5834 5835 5836 5837 5837 5838 5839 5839 5840 5840 5841 5842 5842 5842 5842 5843 5844 5844 5844 5845 5844 5844 5845 5847 5847 5846 5846 5845 5843 5841 5841 5842 5842 5842 5843 5843 5844 5844 5845 5845 5845 5845 5845 5845 5844 5844 5844 5844 5844 5843 5843 5843
5809 5809 5810 5810 5811 5812 5812 5812 5813 5813 5813 5814 5815 5816 5816 5816 5817 5817 5818 5819 5819 5820 5820 5820 5821 5821 5822 5823 5824 5825 5825 5826 5827 5828 5829 5831 5832 5832 5833 5833 5833 5834 5835 5835 5836 5836 5836 5836 5837 5837 5837 5838 5838 5838 5839 5839 5841 5842 5842 5842 5840 5837 5836 5836 5837 5837 5837 5837 5838 5838 5839 5839 5840 5840 5840 5839 5839 5839 5838 5838 5838 5838 5837 5837 5837
5805 5805 5805 5805 5806 5806 5807 5807 5807 5807 5808 5808 5809 5810 5811 5811 5811 5812 5812 5812 5813 5814 5814 5815 5815 5815 5816 5817 5818 5819 5819 5820 5821 5822 5823 5825 5826 5826 5827 5827 5827 5828 5829 5829 5830 5830 5830 5830 5831 5831 5831 5832 5832 5832 5833 5833 5834 5835 5837 5837 5835 5832 5831 5832 5832 5831 5831 5832 5832 5833 5833 5834 5834 5835 5834 5834 5834 5833 5833 5832 5832 5832 5831 5831 5830
5800 5800 5800 5800 5801 5801 5801 5801 5801 5802 5802 5802 5803 5803 5804 5805 5806 5806 5806 5806 5807 5807 5808 5809 5809 5809 5810 5811 5812 5812 5813 5814 5815 5816 5817 5818 5819 5820 5821 5821 5822 5822 5822 5823 5823 5824 5824 5824 5824 5825 5825 5826 5826 5827 5827 5827 5827 5827 5829 5829 5828 5827 5826 5826 5826 5825 5826 5826 5827 5827 5827 5828 5828 5828 5828 5828 5827 5827 5826 5826 5826 5825 5825 5824 5824
5795 5795 5795 5795 5795 5795 5795 5795 5795 5795 5796 5796 5797 5797 5798 5798 5799 5799 5800 5801 5801 5801 5802 5802 5803 5804 5804 5805 5805 5806 5807 5808 5808 5809 5810 5811 5812 5813 5814 5815 5815 5816 5816 5816 5817 5817 5818 5818 5818 5819 5819 5820 5820 5821 5821 5820 5820 5820 5820 5821 5820 5820 5820 5820 5819 5819 5819 5820 5820 5820 5821 5821 5822 5822 5821 5821 5820 5820 5819 5819 5818 5818 5818 5818 5817
5790 5790 5790 5790 5790 5790 5790 5790 5790 5790 5790 5790 5790 5791 5792 5792 5792 5792 5793 5794 5794 5795 5795 5796 5796 5797 5798 5798 5799 5800 5800 5801 5802 5802 5803 5804 5805 5806 5807 5807 5808 5808 5809 5809 5810 5810 5811 5812 5812 5812 5813 5813 5814 5814 5814 5814 5814 5814 5813 5813 5813 5813 5814 5814 5813 5812 5813 5813 5813 5813 5814 5814 5814 5814 5814 5813 5813 5812 5812 5811 5811 5811 5811 5811 5810
5785 5785 5785 5786 5786 5785 5785 5785 5785 5785 5784 5784 5784 5785 5785 5786 5786 5786 5786 5786 5787 5788 5788 5789 5789 5790 5791 5791 5792 5793 5793 5794 5794 5795 5795 5796 5797 5798 5799 5800 5800 5801 5801 5802 5802 5803 5803 5804 5804 5805 5806 5806 5806 5807 5807 5807 5808 5807 5806 5806 5806 5806 5807 5807 5806 5806 5806 5806 5806 5806 5806 5806 5806 5805 5805 5805 5805 5804 5804 5804 5804 5804 5804 5803 5803
5780 5780 5780 5780 5780 5780 5780 5780 5779 5779 5779 5779 5778 5778 5779 5779 5779 5779 5779 5779 5779 5780 5781 5781 5782 5783 5783 5784 5784 5785 5785 5786 5786 5787 5787 5788 5789 5790 5791 5791 5792 5793 5794 5794 5795 5795 5795 5796 5796 5797 5797 5798 5798 5798 5798 5799 5799 5800 5799 5799 5799 5799 5799 5799 5799 5799 5800 5799 5799 5798 5797 5797 5797 5797 5797 5797 5797 5797 5797 5797 5796 5796 5795 5795 5795
5775 5775 5774 5774 5773 5773 5773 5773 5773 5773 5773 5773 5773 5772 5772 5772 5773 5773 5773 5773 5773 5773 5773 5774 5774 5775 5776 5776 5777 5777 5777 5778 5778 5778 5779 5780 5780 5781 5782 5783 5784 5784 5785 5786 5786 5787 5787 5787 5788 5788 5789 5789 5789 5790 5790 5790 5790 5791 5791 5791 5791 5791 5791 5791 5791 5791 5792 5791 5791 5790 5789 5788 5788 5788 5789 5789 5789 5788 5788 5788 5788 5787 5787 5786 5786
5770 5770 5769 5768 5768 5767 5767 5767 5767 5767 5767 5767 5767 5766 5766 5766 5766 5766 5766 5766 5766 5766 5767 5767 5767 5768 5768 5769 5769 5769 5770 5770 5770 5771 5771 5771 5772 5772 5773 5774 5774 5775 5776 5777 5777 5778 5778 5779 5779 5779 5780 5780 5780 5781 5781 5781 5781 5782 5782 5782 5782 5782 5782 5782 5782 5782 5783 5783 5783 5782 5781 5780 5780 5780 5780 5780 5779 5779 5779 5779 5778 5778 5777 5777 5777
5764 5764 5763 5763 5762 5761 5760 5760 5760 5759 5759 5759 5759 5759 5759 5759 5759 5758 5758 5758 5759 5759 5760 5760 5760 5760 5761 5761 5761 5762 5762 5762 5763 5763 5763 5763 5764 5764 5764 5765 5766 5766 5767 5767 5768 5769 5769 5770 5770 5771 5771 5771 5772 5772 5772 5772 5772 5773 5773 5773 5773 5774 5774 5774 5774 5774 5774 5774 5774 5773 5773 5772 5772 5771 5771 5771 5770 5769 5769 5768 5768 5768 5767 5767 5767
5757 5757 5756 5756 5756 5755 5754 5754 5753 5752 5752 5752 5752 5752 5752 5751 5751 5751 5751 5751 5751 5751 5752 5752 5752 5753 5753 5753 5753 5754 5754 5754 5755 5755 5755 5756 5756 5756 5757 5757 5757 5758 5758 5759 5759 5760 5760 5761 5761 5762 5762 5763 5763 5763 5763 5763 5764 5764 5764 5765 5765 5765 5766 5766 5766 5766 5766 5766 5765 5764 5764 5764 5763 5762 5761 5760 5759 5758 5758 5758 5758 5758 5758 5758 5757
5750 5750 5749 5749 5749 5748 5748 5747 5746 5745 5745 5745 5744 5744 5744 5743 5743 5743 5743 5743 5743 5743 5743 5744 5744 5745 5745 5745 5746 5746 5746 5746 5747 5747 5747 5748 5748 5748 5749 5749 5749 5750 5750 5750 5751 5751 5751 5752 5752 5753 5753 5754 5754 5754 5755 5755 5755 5755 5756 5756 5757 5757 5757 5758 5758 5758 5758 5758 5757 5756 5755 5755 5755 5753 5752 5750 5749 5749 5748 5748 5748 5748 5748 5747 5747
5743 5742 5742 5741 5741 5740 5740 5740 5739 5738 5738 5737 5736 5736 5736 5736 5735 5735 5735 5735 5735 5735 5735 5735 5735 5736 5736 5737 5737 5738 5738 5738 5739 5739 5739 5740 5740 5740 5741 5741 5741 5741 5742 5742 5742 5743 5743 5743 5744 5744 5744 5745 5745 5746 5746 5746 5746 5747 5747 5747 5748 5748 5749 5749 5749 5749 5749 5748 5747 5747 5746 5746 5745 5744 5743 5742 5742 5741 5740 5739 5738 5737 5737 5736 5735
5736 5735 5734 5734 5733 5733 5732 5732 5731 5731 5730 5730 5729 5728 5728 5728 5727 5727 5727 5727 5727 5727 5727 5727 5727 5727 5727 5727 5728 5729 5729 5730 5731 5731 5731 5732 5732 5732 5733 5733 5733 5733 5733 5734 5734 5734 5735 5735 5736 5736 5736 5736 5737 5737 5737 5738 5738 5738 5739 5739 5740 5740 5740 5740 5740 5739 5738 5738 5737 5737 5737 5737 5736 5735 5735 5734 5734 5733 5732 5730 5729 5729 5728 5727 5726
5728 5727 5726 5726 5725 5725 5724 5724 5723 5723 5722 5722 5721 5720 5720 5719 5719 5719 5719 5718 5718 5718 5718 5719 5719 5719 5719 5719 5719 5719 5720 5721 5722 5723 5723 5724 5724 5724 5724 5725 5725 5725 5725 5726 5726 5726 5726 5727 5727 5727 5728 5728 5728 5729 5729 5729 5730 5730 5731 5731 5732 5732 5731 5731 5730 5730 5729 5729 5728 5728 5728 5727 5727 5726 5726 5725 5725 5724 5723 5722 5721 5720 5719 5719 5718
5721 5720 5719 5718 5717 5716 5716 5715 5715 5714 5714 5714 5713 5712 5711 5711 5711 5710 5710 5709 5709 5709 5709 5709 5710 5710 5711 5711 5711 5711 5711 5712 5713 5714 5714 5715 5716 5716 5716 5716 5717 5717 5717 5718 5718 5718 5718 5718 5718 5719 5719 5719 5720 5720 5720 5721 5722 5722 5723 5723 5723 5722 5722 5722 5722 5721 5720 5720 5719 5719 5719 5718 5718 5718 5717 5716 5716 5715 5714 5713 5712 5711 5710 5710 5709
5714 5713 5711 5710 5709 5708 5707 5707 5706 5706 5705 5705 5704 5703 5703 5702 5702 5701 5701 5700 5700 5700 5700 5700 5701 5701 5701 5701 5702 5703 5704 5704 5704 5705 5705 5706 5706 5707 5707 5708 5708 5709 5709 5709 5709 5710 5710 5710 5710 5710 5711 5711 5711 5711 5712 5712 5713 5714 5714 5714 5714 5713 5713 5713 5713 5713 5712 5711 5711 5710 5709 5709 5708 5708 5708 5707 5707 5706 5706 5705 5704 5703 5702 5701 5701
5707 5706 5704 5703 5701 5700 5699 5698 5698 5697 5696 5696 5695 5694 5694 5693 5693 5692 5692 5691 5691 5691 5691 5691 5691 5691 5692 5692 5693 5694 5695 5696 5696 5696 5697 5697 5697 5697 5697 5698 5699 5699 5700 5700 5700 5701 5701 5701 5702 5702 5703 5703 5703 5703 5703 5704 5704 5704 5704 5704 5704 5705 5705 5705 5705 5705 5704 5704 5703 5702 5701 5700 5700 5699 5699 5698 5697 5697 5697 5696 5695 5694 5693 5693 5692
5700 5699 5697 5696 5694 5692 5691 5690 5689 5688 5687 5686 5686 5685 5684 5684 5683 5683 5682 5682 5682 5682 5682 5682 5681 5682 5683 5683 5684 5685 5685 5686 5686 5687 5688 5688 5688 5688 5689 5689 5689 5690 5690 5691 5691 5692 5692 5693 5693 5694 5694 5694 5694 5695 5695 5695 5696 5695 5695 5695 5695 5696 5696 5696 5696 5696 5696 5695 5695 5694 5694 5693 5693 5692 5691 5690 5690 5689 5688 5688 5687 5686 5685 5684 5684
5692 5690 5689 5687 5686 5685 5683 5682 5680 5679 5678 5677 5676 5676 5675 5674 5673 5673 5673 5672 5672 5673 5673 5672 5672 5673 5674 5674 5675 5675 5676 5676 5677 5677 5678 5678 5679 5679 5680 5680 5680 5681 5681 5682 5682 5683 5683 5684 5685 5685 5686 5686 5686 5687 5687 5687 5687 5687 5687 5688 5688 5688 5688 5688 5688 5688 5687 5687 5687 5686 5686 5685 5685 5684 5683 5683 5682 5681 5680 5679 5678 5677 5677 5676 5675
5684 5682 5680 5678 5677 5676 5675 5673 5672 5671 5669 5668 5667 5667 5666 5665 5665 5664 5664 5663 5663 5663 5663 5663 5663 5664 5664 5665 5666 5666 5666 5667 5667 5668 5669 5669 5670 5670 5670 5671 5671 5671 5672 5673 5673 5674 5675 5676 5677 5677 5678 5678 5678 5679 5679 5679 5679 5679 5680 5680 5680 5680 5680 5680 5680 5680 5680 5679 5679 5679 5678 5678 5677 5676 5676 5675 5675 5674 5673 5672 5671 5670 5669 5668 5667